Location: Newark
(25.4800°N, 85.7200°E)
Time: 10:00:56
(UTC+00:00)

Courier 1B Rocket - All Passes

Search period start: 22 August 2019 00:00
Search period end: 01 September 2019 00:00
Orbit: 920 x 1202 km, 28.3° (Epoch: 21 August)

Date Brightness Start Highest point End Pass type
(mag) Time Alt. Az. Time Alt. Az. Time Alt. Az.
22 Aug - 00:54:04 10° WNW 01:01:56 81° N 01:09:45 10° E daylight
22 Aug - 02:48:10 10° W 02:55:49 58° SSW 03:03:13 10° SE daylight
22 Aug - 04:43:39 10° WSW 04:49:06 21° SSW 04:54:23 10° SSE daylight
22 Aug - 18:14:24 10° SSW 18:19:17 21° SSE 18:24:25 10° ESE night (unlit)
22 Aug - 20:05:27 10° SW 20:12:25 59° SSE 20:19:53 10° E visible
22 Aug - 21:58:46 10° W 22:06:14 80° N 22:14:05 10° ENE visible
22 Aug - 23:52:45 10° W 00:00:29 75° N 00:08:20 10° E daylight
23 Aug - 01:46:43 10° WNW 01:54:32 73° SSW 02:02:15 10° ESE daylight
23 Aug - 03:41:24 10° W 03:48:03 31° SSW 03:54:28 10° SSE daylight
23 Aug - 17:15:39 10° S 17:18:22 13° SE 17:21:09 10° ESE night (unlit)
23 Aug - 19:04:51 10° SW 19:11:20 43° SSE 19:18:16 10° E visible
23 Aug - 20:57:36 10° WSW 21:04:52 90° SSE 21:12:37 10° ENE visible
23 Aug - 22:51:27 10° W 22:59:00 72° N 23:06:51 10° E visible
24 Aug - 00:45:22 10° WNW 00:53:11 88° SSW 01:01:02 10° ESE daylight
24 Aug - 02:39:35 10° W 02:46:54 43° SSW 02:54:02 10° SE daylight
24 Aug - 04:36:36 10° WSW 04:40:07 14° SW 04:43:33 10° S daylight
24 Aug - 18:04:36 10° SSW 18:10:21 30° SSE 18:16:27 10° E night (unlit)
24 Aug - 19:56:37 10° WSW 20:03:37 75° SSE 20:11:09 10° ENE visible
24 Aug - 21:50:13 10° W 21:57:34 73° N 22:05:21 10° E visible
24 Aug - 23:44:05 10° WNW 23:51:46 82° N 23:59:40 10° E daylight
25 Aug - 01:38:03 10° W 01:45:40 57° SSW 01:53:15 10° SE daylight
25 Aug - 03:33:28 10° WSW 03:39:02 21° SSW 03:44:31 10° SSE daylight
25 Aug - 17:04:50 10° SSW 17:09:26 20° SSE 17:14:14 10° ESE night (unlit)
25 Aug - 18:55:50 10° SW 19:02:29 58° SSE 19:09:39 10° E visible
25 Aug - 20:49:03 10° W 20:56:11 79° N 21:03:51 10° ENE visible
25 Aug - 22:42:53 10° W 22:50:21 75° N 22:58:10 10° E visible
26 Aug - 00:36:41 10° WNW 00:44:23 72° SSW 00:52:12 10° ESE daylight
26 Aug - 02:31:16 10° W 02:37:55 31° SSW 02:44:30 10° SSE daylight
26 Aug - 16:06:14 10° SSE 16:08:34 12° SE 16:10:57 10° SE night (unlit)
26 Aug - 17:55:17 10° SW 18:01:28 42° SSE 18:08:04 10° E night (unlit)
26 Aug - 19:47:59 10° WSW 19:54:54 89° N 20:02:23 10° ENE visible
26 Aug - 21:41:41 10° W 21:48:56 72° N 21:56:39 10° E visible
26 Aug - 23:35:26 10° WNW 23:43:02 87° SSW 23:50:55 10° ESE daylight
27 Aug - 01:29:32 10° W 01:36:44 42° SSW 01:44:00 10° SE daylight
27 Aug - 03:26:27 10° WSW 03:30:03 14° SSW 03:33:38 10° S daylight
27 Aug - 16:55:03 10° SSW 17:00:32 29° SSE 17:06:19 10° E night (unlit)
27 Aug - 18:47:03 10° WSW 18:53:43 76° SSE 19:00:56 10° ENE visible
27 Aug - 20:40:32 10° W 20:47:33 73° N 20:55:07 10° E visible
27 Aug - 22:34:16 10° WNW 22:41:40 82° N 22:49:28 10° E visible
28 Aug - 00:28:04 10° W 00:35:31 56° SSW 00:43:09 10° SE daylight
28 Aug - 02:23:23 10° WSW 02:28:56 21° SSW 02:34:29 10° SSE daylight
28 Aug - 15:55:18 10° SSW 15:59:41 19° SSE 16:04:12 10° ESE night (unlit)
28 Aug - 17:46:18 10° SW 17:52:39 58° SSE 17:59:29 10° E night (unlit)
28 Aug - 19:39:26 10° W 19:46:15 78° N 19:53:37 10° ENE visible
28 Aug - 21:33:09 10° W 21:40:18 74° N 21:47:57 10° E visible
28 Aug - 23:26:48 10° WNW 23:34:14 71° SSW 23:42:01 10° ESE visible
29 Aug - 01:21:16 10° W 01:27:47 30° SSW 01:34:24 10° SSE daylight
29 Aug - 14:56:43 10° SSE 14:58:50 12° SSE 15:00:59 10° SE night (unlit)
29 Aug - 16:45:45 10° SW 16:51:42 42° SSE 16:57:59 10° E night (unlit)
29 Aug - 18:38:26 10° WSW 18:45:02 88° NNW 18:52:11 10° ENE night (unlit)
29 Aug - 20:32:03 10° W 20:38:57 71° N 20:46:24 10° E visible
29 Aug - 22:25:39 10° WNW 22:32:57 86° SSW 22:40:42 10° ESE visible
30 Aug - 00:19:37 10° W 00:26:36 41° SSW 00:33:50 10° SE daylight
30 Aug - 02:16:30 10° WSW 02:19:58 13° SSW 02:23:27 10° S daylight
30 Aug - 15:45:30 10° SSW 15:50:49 29° SSE 15:56:20 10° E night (unlit)
30 Aug - 17:37:31 10° WSW 17:43:56 76° SSE 17:50:49 10° ENE night (unlit)
30 Aug - 19:30:58 10° W 19:37:40 72° N 19:44:54 10° E visible
30 Aug - 21:24:35 10° WNW 21:31:39 82° NNE 21:39:14 10° E visible
30 Aug - 23:18:15 10° W 23:25:24 55° SSW 23:32:56 10° SE visible
31 Aug - 01:13:28 10° WSW 01:18:50 21° SSW 01:24:17 10° SSE daylight
31 Aug - 14:45:42 10° SSW 14:49:59 19° SSE 14:54:20 10° ESE visible
31 Aug - 16:36:46 10° SW 16:42:56 58° SSE 16:49:27 10° E night (unlit)
31 Aug - 18:29:55 10° W 18:36:26 77° N 18:43:27 10° ENE night (unlit)
31 Aug - 20:23:32 10° W 20:30:21 74° N 20:37:43 10° E visible
31 Aug - 22:17:04 10° W 22:24:11 70° SSW 22:31:47 10° ESE visible
